Content
SEND FEEDBACK

Daily
Averages
Monthly
Summary
United States of America

GRANBY, COLORADO


Home > North America > United States > Colorado
Elevation: 8210 feet     Latitude: 40 06N     Longitude: 105 56W

WEATHER
 
SELECT A DAY
Number of Records: 266,052;   Date Range: 8/13/03 - 9/30/14
 
SHARE

PRINT THIS DATA

[ ← Previous Day ]
WEATHER ALMANAC - APRIL 9, 2014
[ Next Day → ]
[ °C ]   °F
Weather ElementAverageHighLow
Temperature47.1 °F68 °F (2:56 pm)24.8 °F (6:36 am)
Dewpoint16.4 °F28.4 °F (12:36 am)1.4 °F (7:36 pm)
Humidity41.5 %86 % (3:36 am)10 % (2:56 pm)
Barometer30.18 in30.31 in (12:36 am)30.06 in (5:36 pm)
Wind Speed8.8 mph28.8 mph (2:16 pm)
Wind Gust35.7 mph (2:16 pm)
Weather ElementAverage
Visibility10 mi
Wind DirectionSSE (151.4 °)

Weather ElementTotal
Precipitation---
Heating Degree Days18.6 (Base 65)
Averaged from 71 records on April 9, 2014
WEATHER CONDITIONS BREAKOUT
WIND DIRECTION BREAKOUT
WEATHER BY HOUR - APRIL 9, 2014
[ °C ]   °F
Local TimeTemperatureDewpointHumidityBarometerVisibilityWind DirectionWind SpeedGust SpeedPrecipitationEventsConditions
12:36 AM33.8 °F28.4 °F81 %30.31 in10.0 miCalmClear
12:56 AM33.8 °F26.6 °F75 %30.31 in10.0 miCalmClear
1:16 AM33.8 °F26.6 °F75 %30.30 in10.0 miCalmClear
1:36 AM32.0 °F26.6 °F80 %30.30 in10.0 miCalmClear
1:56 AM32.0 °F26.6 °F80 %30.30 in10.0 miCalmClear
2:16 AM32.0 °F26.6 °F80 %30.30 in10.0 miCalmClear
2:36 AM30.2 °F24.8 °F80 %30.30 in10.0 miCalmClear
2:56 AM30.2 °F24.8 °F80 %30.29 in10.0 miCalmClear
3:16 AM30.2 °F24.8 °F80 %30.29 in10.0 miSE (130°)3.5 mphClear
3:36 AM30.2 °F26.6 °F86 %30.29 in10.0 miCalmClear
3:56 AM28.4 °F23.0 °F80 %30.29 in10.0 miCalmClear
4:16 AM28.4 °F23.0 °F80 %30.29 in10.0 miCalmClear
4:36 AM28.4 °F23.0 °F80 %30.29 in10.0 miCalmClear
4:56 AM28.4 °F23.0 °F80 %30.29 in10.0 miCalmClear
5:16 AM28.4 °F23.0 °F80 %30.29 in10.0 miCalmClear
5:36 AM26.6 °F23.0 °F86 %30.28 in10.0 miCalmClear
5:56 AM26.6 °F23.0 °F86 %30.29 in10.0 miCalmClear
6:16 AM26.6 °F21.2 °F80 %30.28 in10.0 miCalmClear
6:36 AM24.8 °F21.2 °F86 %30.28 in10.0 miCalmClear
6:56 AM24.8 °F21.2 °F86 %30.28 in10.0 miCalmClear
7:16 AM24.8 °F21.2 °F86 %30.29 in10.0 miCalmClear
7:36 AM26.6 °F23.0 °F86 %30.29 in10.0 miCalmClear
7:56 AM30.2 °F26.6 °F86 %30.29 in10.0 miCalmClear
8:16 AM32.0 °F26.6 °F80 %30.29 in10.0 miCalmClear
8:35 AM33.8 °F26.6 °F75 %30.28 in10.0 miESE (110°)4.6 mphClear
8:56 AM37.4 °F26.6 °F65 %30.27 in10.0 miESE (110°)5.8 mphClear
9:16 AM37.4 °F26.6 °F65 %30.26 in10.0 miSE (140°)3.5 mphClear
9:36 AM41.0 °F26.6 °F57 %30.26 in10.0 miSE (140°)3.5 mphClear
9:56 AM44.6 °F26.6 °F49 %30.24 in10.0 miSE (130°)4.6 mphClear
10:16 AM50.0 °F26.6 °F40 %30.23 in10.0 miESE (110°)4.6 mphClear
10:36 AM50.0 °F23.0 °F35 %30.22 in10.0 miSSE (150°)4.6 mphClear
10:56 AM51.8 °F21.2 °F30 %30.21 in10.0 miSE (130°)3.5 mphClear
11:16 AM55.4 °F19.4 °F25 %30.20 in10.0 miSW (230°)16.1 mph20.7 mphClear
11:36 AM59.0 °F19.4 °F22 %30.18 in10.0 miWSW (240°)17.3 mph21.9 mphClear
11:56 AM60.8 °F19.4 °F20 %30.16 in10.0 miWSW (250°)16.1 mph25.3 mphClear
12:16 PM60.8 °F17.6 °F19 %30.16 in10.0 miWSW (240°)21.9 mph29.9 mphClear
12:35 PM62.6 °F17.6 °F18 %30.14 in10.0 miSW (220°)20.7 mph25.3 mphClear
12:56 PM64.4 °F15.8 °F15 %30.14 in10.0 miWest (260°)17.3 mph26.5 mphClear
1:16 PM64.4 °F15.8 °F15 %30.12 in10.0 miWSW (250°)23.0 mph29.9 mphClear
1:35 PM64.4 °F14.0 °F14 %30.12 in10.0 miWest (260°)16.1 mph29.9 mphClear
1:56 PM64.4 °F14.0 °F14 %30.11 in10.0 miWSW (250°)17.3 mph31.1 mphClear
2:16 PM66.2 °F8.6 °F11 %30.10 in10.0 miWSW (250°)28.8 mph35.7 mphScattered Clouds
2:36 PM66.2 °F8.6 °F11 %30.10 in10.0 miWest (260°)27.6 mph35.7 mphScattered Clouds
2:56 PM68.0 °F8.6 °F10 %30.10 in10.0 miWest (270°)23.0 mph28.8 mphScattered Clouds
3:16 PM68.0 °F8.6 °F10 %30.08 in10.0 miWest (260°)20.7 mph31.1 mphScattered Clouds
3:36 PM66.2 °F10.4 °F11 %30.08 in10.0 miWest (270°)9.2 mph25.3 mphClear
3:56 PM66.2 °F10.4 °F11 %30.07 in10.0 miWest (260°)18.4 mph26.5 mphMostly Cloudy
4:16 PM66.2 °F10.4 °F11 %30.07 in10.0 miWest (260°)18.4 mph32.2 mphScattered Clouds
4:36 PM62.6 °F8.6 °F12 %30.07 in10.0 miWest (270°)13.8 mph24.2 mphClear
4:56 PM60.8 °F10.4 °F14 %30.07 in10.0 miWSW (250°)21.9 mph27.6 mphScattered Clouds
5:16 PM60.8 °F5.0 °F11 %30.07 in10.0 miWSW (250°)18.4 mph28.8 mphScattered Clouds
5:36 PM60.8 °F3.2 °F10 %30.06 in10.0 miWSW (250°)19.6 mph27.6 mphClear
5:56 PM59.0 °F3.2 °F11 %30.06 in10.0 miWSW (250°)17.3 mph25.3 mphClear
6:16 PM59.0 °F3.2 °F11 %30.06 in10.0 miWSW (250°)13.8 mph24.2 mphClear
6:36 PM59.0 °F3.2 °F11 %30.06 in10.0 miWSW (250°)18.4 mph29.9 mphClear
6:56 PM55.4 °F3.2 °F12 %30.06 in10.0 miWSW (250°)11.5 mph27.6 mphClear
7:16 PM55.4 °F3.2 °F12 %30.06 in10.0 miWSW (250°)10.4 mph20.7 mphClear
7:36 PM55.4 °F1.4 °F11 %30.06 in10.0 miWSW (250°)17.3 mph26.5 mphClear
7:56 PM53.6 °F1.4 °F12 %30.06 in10.0 miWSW (250°)11.5 mphClear
8:15 PM53.6 °F5.0 °F14 %30.06 in10.0 miWSW (240°)9.2 mph17.3 mphClear
8:36 PM53.6 °F6.8 °F15 %30.07 in10.0 miWSW (240°)6.9 mph18.4 mphClear
8:56 PM51.8 °F6.8 °F16 %30.07 in10.0 miSW (230°)5.8 mphClear
9:16 PM53.6 °F8.6 °F16 %30.08 in10.0 miSW (230°)8.1 mphClear
9:36 PM53.6 °F8.6 °F16 %30.08 in10.0 miSW (230°)8.1 mphClear
9:56 PM53.6 °F8.6 °F16 %30.08 in10.0 miSW (220°)9.2 mphClear
10:15 PM51.8 °F10.4 °F19 %30.09 in10.0 miSW (230°)6.9 mphClear
10:36 PM51.8 °F10.4 °F19 %30.08 in10.0 miWSW (240°)8.1 mphClear
10:55 PM51.8 °F12.2 °F21 %30.08 in10.0 miWSW (240°)11.5 mph18.4 mphClear
11:16 PM51.8 °F10.4 °F19 %30.08 in10.0 miSW (230°)10.4 mph17.3 mphClear
11:36 PM51.8 °F10.4 °F19 %30.08 in10.0 miSW (230°)9.2 mphClear
11:55 PM50.0 °F10.4 °F20 %30.09 in10.0 miWSW (240°)10.4 mphScattered Clouds
Hourly data recorded from K20V, located miles away from Granby, Colorado







STORIES FROM OUR PARTNERS